www.pogodaiklimat.ru
Время
(UTC), дата
09 5.07
12 5.07
15 5.07
18 5.07
21 5.07
00 6.07
03 6.07
06 6.07
09 6.07
12 6.07
15 6.07
18 6.07
21 6.07
00 7.07
03 7.07
06 7.07
09 7.07
12 7.07
15 7.07
18 7.07
21 7.07
00 8.07
03 8.07
06 8.07
09 8.07
12 8.07
15 8.07
18 8.07
21 8.07
00 9.07
03 9.07
06 9.07
09 9.07
12 9.07
15 9.07
18 9.07
21 9.07
00 10.07
03 10.07
06 10.07
09 10.07
12 10.07
15 10.07
18 10.07
21 10.07
00 11.07
03 11.07
06 11.07
09 11.07
12 11.07
15 11.07
18 11.07
21 11.07
00 12.07
03 12.07
06 12.07
Ветер
(напр.,м/с)
Видим. Явления Облачность Т
(С)
Тd
(С)
f
(%)
Тe
(С)
Тes
(С)
Комфортность P
(гПа)
Po
(гПа)
Тmin
(С)
Tmax
(С)
R
(мм)
R24
(мм)
S
(см)
З 1 50 км дым 9/4 1000 м
[Cb cap Ac trans Ci fib]
+15.5 +7.4 58 +16 +17 по сезону 997.9 914.9 +17.0 6
В 2 50 км дым 9/5 1500 м
[Sc diur, vesp Ci fib]
+13.3 +2.1 47 +13 +13 по сезону 999.7 915.9
ЮЗ 2 50 км дым 9/5 1500 м
[Sc Ci fib]
+4.7 +3.5 92 +2 +2 очень
холодно
1003.2 916.6
В 1 50 км дым 9/4 1500 м
[Sc Ci fib]
+3.7 +3.0 95 +2 +2 прохладно 1004.5 917.5
штиль 0 50 км дым 9/4 1500 м
[Sc Ac trans Ci fib]
+6.5 +5.8 95 +5 +7 холодно 1004.2 918.2 +3.0 0.0
штиль 0 50 км 10/1 1000 м
[Cu med, cong Ac trans Cs]
+13.3 +3.8 53 +13 +19 по сезону 1002.1 918.2
С 3 50 км 10/3 1000 м
[Cu med, cong Ac trans Cs]
+16.3 +3.2 41 +16 +20 по сезону 1000.9 917.9
СВ 4 50 км 10/3 1000 м
[Cb calv Ac lent Cs]
+16.5 +3.8 43 +16 +18 прохладно 1001.1 918.1
С 4 50 км слаб. ливневой дождь 9/8 1000 м
[Cb cap Ci fib]
+14.1 +5.1 55 +13 +13 прохладно 1003.5 919.6 +17.3 0.0
З 1 50 км в посл. час ливневой дождь 10/5 1000 м
[Cb cap Ac trans Ci fib]
+10.3 +8.6 89 +10 +10 прохладно 1005.8 920.7
З 2 50 км местами туман поземный 6/3 1000 м
[Sc Ac trans Ci fib]
+6.0 +5.1 94 +3 +3 холодно 1008.4 921.8
Ю 2 50 км местами туман поземный 6/3 1500 м
[Sc Ci fib]
+3.1 +2.1 93 -0 0 холодно 1010.3 922.7
штиль 0 50 км 1/1 1500 м
[Sc]
+10.5 +6.7 77 +10 +14 по сезону 1008.9 923.6 +3.1 0.3
В 1 50 км 4/3 1000 м
[Cb cap Ci fib]
+15.5 +6.7 56 +16 +24 тепло 1007.0 923.3
ЮВ 2 50 км слаб. ливневой дождь 8/8 1000 м
[Cb cap]
+14.7 +5.1 53 +15 +17 по сезону 1006.4 922.5
СЗ 2
{10}
20 км слаб. ливневой дождь 9/9 1000 м
[Cb cap]
+11.6 +9.2 85 +10 +11 холодно 1007.4 922.6
С 1 50 км {ливн. дождь} 6/4 1000 м
[Cb cap Ac trans Ci fib]
+17.1 +8.8 58 +18 +19 тепло 1004.7 921.7 +17.7 4
ЮЗ 1 50 км {ливн. дождь} 6/4 1000 м
[Cb cap Ci fib]
+12.4 +7.0 70 +13 +13 тепло 1006.8 922.3
З 1 50 км 8/5 1000 м
[Cb cap Ci fib]
+10.1 +6.7 79 +10 +10 по сезону 1007.1 922.5
штиль 0 50 км 8/4 1000 м
[Sc Ac trans Ci fib]
+5.2 +4.7 97 +4 +4 по сезону 1009.1 922.2
штиль 0 50 км 8/5 1000 м
[Sc Ac trans Ci fib]
+10.3 +7.6 83 +10 +11 по сезону 1007.5 922.3 +4.5 0.0
С 1 50 км 9/3 1000 м
[Cb calv Ac cast Ci fib]
+17.2 +8.9 58 +18 +23 тепло 1004.2 921.3
Ю 2 50 км слаб. ливневой дождь, в посл. час гроза 10/6 1000 м
[Cb cap Ac trans Ci ing]
+14.3 +8.8 69 +14 +16 по сезону 1004.2 920.4
СВ 1 50 км гроза без осадков {ливн. дождь} 10/6 1000 м
[Cb cap Ac trans Cs]
+18.5 +7.7 49 +20 +22 тепло 1002.0 919.6
ЮВ 2 50 км {гроза, ливн. дождь} 10/6 1000 м
[Cb cap Ac trans Ci fib]
+12.8 +8.1 73 +12 +12 по сезону 1005.0 920.7 +18.6 0.1
В 1 50 км {гроза, ливн. дождь} 10/8 1500 м
[Sc Ac trans Ci fib]
+10.8 +9.2 90 +10 +10 по сезону 1006.7 921.7
штиль 0 50 км местами туман поземный 8/6 1500 м
[Sc Ci fib]
+6.8 +6.6 99 +6 +6 по сезону 1008.2 921.9
штиль 0 20 км туман на расстоянии 10/6 1500 м
[Sc Ac trans Ci fib]
+4.5 +4.3 99 +3 +3 по сезону 1009.9 922.7
СВ 1 50 км 10/3 1500 м
[Sc Ac trans Ci fib]
+9.9 +8.5 91 +9 +11 по сезону 1009.0 923.5 +4.2 0.0
В 1 50 км 8/3 1000 м
[Cb cap Ac trans Ci fib]
+15.0 +8.5 65 +16 +21 тепло 1007.8 924.0
З 1 50 км слаб. ливневой дождь 9/9 1000 м
[Cb cap]
+16.3 +8.5 60 +17 +19 тепло 1007.0 923.5
З 2 50 км слаб. ливневой дождь 10/10 1000 м
[Cb cap]
+14.3 +10.5 78 +14 +14 тепло 1008.7 924.6
СВ 1 50 км {ливн. дождь} 8/4 1000 м
[Cb cap Ci fib]
+15.8 +9.9 68 +17 +18 тепло 1008.7 924.9 +18.3 0.3
СЗ 4 50 км слаб. ливневой дождь 10/9 1000 м
[Cb cap Ci fib]
+11.5 +9.3 86 +9 +9 по сезону 1011.3 926.2
ЮЗ 1 50 км {ливн. дождь} 10/9 1000 м
[Cb cap Ci fib]
+7.4 +7.0 97 +6 +6 по сезону 1013.3 926.7
З 1 50 км дымка {ливн. дождь} 10/6 1000 м
[Sc Ac trans Ci fib]
+6.4 +6.2 99 +5 +5 по сезону 1014.1 927.2
штиль 0 200 м туман ?/? +9.3 +8.6 95 +8 +8 по сезону 1014.0 928.0 +5.9 3
штиль 0 50 км {туман} 3/3 1000 м
[Cb cap]
+15.7 +9.5 67 +16 +25 по сезону 1011.8 927.4
Ю 3 50 км {ливн. дождь} 6/5 1000 м
[Cb cap Ac cuf]
+18.9 +7.4 47 +20 +24 тепло 1009.7 926.4
ЮЗ 2 50 км в посл. час ливневой дождь 8/8 1000 м
[Cb cap]
+18.8 +7.8 49 +20 +21 по сезону 1008.9 925.9
СВ 2 50 км 3/1 1000 м
[Cb cap Ac lent]
+20.5 +5.6 38 +22 +23 комфорт 1008.4 925.9 +21.4 0.1
ЮВ 2 50 км 4/3 1000 м
[Sc Ci fib]
+13.3 +6.4 63 +13 +13 по сезону 1012.0 927.3
штиль 0 50 км 6/3 1000 м
[Sc Ci fib]
+4.9 +4.0 94 +4 +4 холодно 1015.6 928.1
З 1 50 км 6/1 1000 м
[Sc Ci fib]
+3.5 +2.7 94 +2 +2 прохладно 1017.3 929.2
В 1 50 км 4/1 1000 м
[Sc Ci fib]
+11.5 +6.8 73 +11 +15 по сезону 1015.6 930.0 +3.4 0.0
штиль 0 50 км 3/1 1000 м
[Cb cap Ci fib]
+18.6 +7.8 49 +19 +30 тепло 1012.9 929.6
ЮВ 2 50 км 6/4 1000 м
[Sc Ci fib]
+22.7 +5.9 34 +23 +30 комфорт 1010.6 928.5
ЮЗ 2 50 км 5/4 1000 м
[Sc diur, vesp Ci fib]
+23.5 +4.0 28 +23 +28 комфорт 1009.5 927.7
ЮЗ 1 50 км 3/3 1000 м
[Sc diur, vesp Ci fib]
+24.2 +4.3 28 +24 +25 комфорт 1009.3 927.8 +24.5 0.0
З 2 50 км 4/1 1000 м
[Sc diur, vesp Cc]
+14.5 +8.8 69 +14 +14 по сезону 1012.6 928.3
З 1 50 км 5/0
[Ci fib]
+4.2 +3.0 92 +3 +3 холодно 1017.3 929.4
З 1 50 км 4/0
[Ci fib]
+1.4 +0.6 94 -1 -0 холодно 1019.4 930.4
Ю 2 50 км 3/0
[Cc]
+11.4 +4.8 64 +10 +14 по сезону 1016.2 930.5 +0.5 0.0
ЮВ 1 50 км 9/0
[Cs]
+21.1 +6.2 38 +22 +31 комфорт 1012.2 929.6
ЮВ 2 50 км 10/1 1500 м
[Cu hum Cc]
+24.3 +4.6 28 +24 +33 комфорт 1009.5 928.1
штиль 0 50 км 10/1 1500 м
[Sc Ac lent Cc]
+24.9 +4.3 26 +24 +29 комфорт 1008.2 926.9
Местоположение метеостанции Оймякон (Якутия, Россия): широта 63.25 долгота 143.10 высота над уровнем моря 740 м.
В архиве по умолчанию представлена погода в Оймяконе за последнюю неделю. Архивные данные за месяц целиком и за предыдущие месяцы, начиная с января 2011 года, Вы можете получить, выбрав интересующий диапазон дат из раскрывающегося списка и нажав кнопку "Найти!".
*Определитесь, кто Вы:
Внимание! Время в таблицах - всемирное. Для получения местного времени необходимо прибавить поправку, которая равна 10 ч.
Смотрите также архив погоды в соседних городах и на ближайших метеорологических станциях:
Партнеры нашего сайта:      
Пояснения к столбцам:
  • Ветер - указаны скорость ветра в м/с - средняя за 10 мин, порывы в срок и между сроками (в фигурных скобках) и направление, откуда дует ветер: С - северный,
  • СВ - северо-восточный, В - восточный, ЮВ - юго-восточный, Ю - южный, ЮЗ - юго-западный, З - западный, СЗ - северо-западный.
  • Видимость - горизонтальная дальность видимости в метрах или километрах. При видимости от 1 до 10 км при отсутствии осадков обычно наблюдается дымка, при ухудшении видимости до 1 км и менее - туман. В сухую погоду видимость может ухудшаться дымом, пылью или мглою.
  • Явления - указаны атмосферные явления, наблюдавшиеся в срок или в последний час перед сроком; фигурными скобками обозначены явления, наблюдавшиеся между сроками (за 1-3 часа до срока); квадратными скобками обозначены град или гололедные отложения с указанием их диаметра в мм.
  • Облачность - указаны через наклонную черту общая и нижняя облачность в баллах и высота нижней границы облаков в метрах; квадратными скобками обозначены формы облаков: Ci - перистые, Cs - перисто-слоистые, Cc - перисто-кучевые, Ac - высококучевые, As - высокослоистые, Sc - слоисто-кучевые, Ns - слоисто-дождевые, Cu - кучевые, Cb - кучево-дождевые. Подробнее классификацию облаков см. в Атласе облаков (PDF).
  • T - Температура воздуха - температура, измеренная на высоте 2 м над землей.
  • Td - Температура точки росы - температура, при понижении до которой содержащийся в воздухе водяной пар достигнет насыщения.
  • f - Относительная влажность воздуха - влажноcть воздуха, измеренная на высоте 2 м над землей.
  • Te - Эффективная температура - температура, которую ощущает одетый по сезону человек в тени. Характеристика душности погоды. При расчете учитывается влияние влажности воздуха и скорости ветра на теплоощущения человека.
  • Tes - Эффективная температура на солнце - температура, которую ощущает человек, с поправкой на солнечный нагрев. Характеристика знойности погоды. Зависит от высоты солнца над горизонтом, облачности и скорости ветра. Ночью, в пасмурную погоду, а также при ветре 12 м/с и более поправка равна нулю.
  • P - Атмосферное давление - приведенное к уровню моря атмосферное давление.
  • Po - Атмосферное давление - измеренное на уровне метеостанции атмосферное давление.
  • Tmin - Минимальная температура - минимум температуры воздуха на высоте 2 м над землей.
  • Tmax - Максимальная температура - максимум температуры воздуха на высоте 2 м над землей.
  • R - Количество осадков - Количество выпавших осадков за период времени, мм. При наведении курсора мыши на число - период времени, за который выпало указанное количество осадков.
  • R24 - Количество осадков - Количество выпавших осадков за 24 часа, мм.
  • S - Снежный покров - Высота снежного покрова, см. При наведении курсора мыши на число - состояние снежного покрова и степень покрытия местности в баллах.